Time,TemperatureF,DewpointF,PressureIn,WindDirection,WindDirectionDegrees,WindSpeedMPH,WindSpeedGustMPH,Humidity,HourlyPrecipIn,Conditions,Clouds,dailyrainin,SoftwareType,DateUTC
2013-05-24 00:00:00,45.9,42.5,22.58,East,86,0.0,21.0,88,0.00,,,0.00,Wunderground v.1.15,2013-05-24 06:00:00,
2013-05-24 00:04:00,46.0,42.9,22.58,East,86,0.0,21.0,89,0.00,,,0.00,Wunderground v.1.15,2013-05-24 06:04:00,
2013-05-24 00:06:00,46.0,42.6,22.58,East,86,0.0,21.0,88,0.00,,,0.00,Wunderground v.1.15,2013-05-24 06:06:00,
2013-05-24 00:10:00,46.0,42.6,22.58,East,86,0.0,21.0,88,0.00,,,0.00,Wunderground v.1.15,2013-05-24 06:10:00,
2013-05-24 00:12:00,46.1,42.7,22.58,East,86,0.0,21.0,88,0.00,,,0.00,Wunderground v.1.15,2013-05-24 06:12:00,
2013-05-24 00:14:00,46.1,42.7,22.58,East,86,0.0,21.0,88,0.00,,,0.00,Wunderground v.1.15,2013-05-24 06:14:00,
2013-05-24 00:16:00,46.1,42.7,22.58,East,86,0.0,21.0,88,0.00,,,0.00,Wunderground v.1.15,2013-05-24 06:16:00,
2013-05-24 00:18:00,46.2,42.8,22.58,ENE,70,0.0,21.0,88,0.00,,,0.00,Wunderground v.1.15,2013-05-24 06:18:00,
2013-05-24 00:20:00,46.2,42.8,22.58,ENE,69,0.0,21.0,88,0.00,,,0.00,Wunderground v.1.15,2013-05-24 06:20:00,
2013-05-24 00:22:00,46.2,42.8,22.58,ENE,70,0.0,21.0,88,0.00,,,0.00,Wunderground v.1.15,2013-05-24 06:22:00,
2013-05-24 00:24:00,46.3,42.9,22.58,ESE,102,0.0,21.0,88,0.00,,,0.00,Wunderground v.1.15,2013-05-24 06:24:00,
2013-05-24 00:26:00,46.3,42.9,22.58,SSE,152,0.0,21.0,88,0.00,,,0.00,Wunderground v.1.15,2013-05-24 06:26:00,
2013-05-24 00:28:00,46.2,42.8,22.58,SSE,159,0.0,21.0,88,0.00,,,0.00,Wunderground v.1.15,2013-05-24 06:28:00,
2013-05-24 00:30:00,46.2,42.8,22.58,SW,221,0.0,21.0,88,0.00,,,0.00,Wunderground v.1.15,2013-05-24 06:30:00,
2013-05-24 00:32:00,46.2,42.8,22.58,SW,221,0.0,21.0,88,0.00,,,0.00,Wunderground v.1.15,2013-05-24 06:32:00,
2013-05-24 00:37:00,46.1,42.7,22.57,SW,221,0.0,21.0,88,0.00,,,0.00,Wunderground v.1.15,2013-05-24 06:37:00,
2013-05-24 00:38:00,46.1,43.0,22.58,SW,221,0.0,21.0,89,0.00,,,0.00,Wunderground v.1.15,2013-05-24 06:38:00,
2013-05-24 00:40:00,46.1,43.0,22.58,SW,221,0.0,21.0,89,0.00,,,0.00,Wunderground v.1.15,2013-05-24 06:40:00,
2013-05-24 00:42:00,46.2,43.1,22.58,SE,131,0.0,21.0,89,0.00,,,0.00,Wunderground v.1.15,2013-05-24 06:42:00,
2013-05-24 00:46:00,46.2,42.8,22.58,SE,131,0.0,21.0,88,0.00,,,0.00,Wunderground v.1.15,2013-05-24 06:46:00,
2013-05-24 00:48:00,46.2,42.8,22.57,NW,321,0.0,21.0,88,0.00,,,0.00,Wunderground v.1.15,2013-05-24 06:48:00,
2013-05-24 00:50:00,46.2,42.8,22.58,WSW,242,0.0,21.0,88,0.00,,,0.00,Wunderground v.1.15,2013-05-24 06:50:00,
2013-05-24 00:52:00,46.3,42.9,22.57,WSW,242,1.0,21.0,88,0.00,,,0.00,Wunderground v.1.15,2013-05-24 06:52:00,
2013-05-24 00:54:00,46.3,42.9,22.57,WSW,242,1.0,21.0,88,0.00,,,0.00,Wunderground v.1.15,2013-05-24 06:54:00,
2013-05-24 00:56:00,46.2,42.8,22.57,WSW,242,1.0,21.0,88,0.00,,,0.00,Wunderground v.1.15,2013-05-24 06:56:00,
2013-05-24 00:58:00,46.2,42.8,22.57,WSW,242,1.0,21.0,88,0.00,,,0.00,Wunderground v.1.15,2013-05-24 06:58:00,
2013-05-24 01:05:00,46.1,42.7,22.57,WSW,242,0.0,21.0,88,0.00,,,0.00,Wunderground v.1.15,2013-05-24 07:05:00,
2013-05-24 01:06:00,46.0,42.6,22.57,WSW,242,0.0,21.0,88,0.00,,,0.00,Wunderground v.1.15,2013-05-24 07:06:00,
2013-05-24 01:10:00,45.8,42.7,22.57,WSW,242,0.0,21.0,89,0.00,,,0.00,Wunderground v.1.15,2013-05-24 07:10:00,
2013-05-24 01:14:00,45.7,42.6,22.57,WSW,242,0.0,21.0,89,0.00,,,0.00,Wunderground v.1.15,2013-05-24 07:14:00,
2013-05-24 01:18:00,45.6,42.5,22.57,WSW,242,0.0,21.0,89,0.00,,,0.00,Wunderground v.1.15,2013-05-24 07:18:00,
2013-05-24 01:20:00,45.6,42.5,22.57,WSW,242,0.0,21.0,89,0.00,,,0.00,Wunderground v.1.15,2013-05-24 07:20:00,
2013-05-24 01:26:00,45.5,42.7,22.57,SE,137,0.0,21.0,90,0.00,,,0.00,Wunderground v.1.15,2013-05-24 07:26:00,
2013-05-24 01:28:00,45.5,42.4,22.57,SE,137,0.0,21.0,89,0.00,,,0.00,Wunderground v.1.15,2013-05-24 07:28:00,
2013-05-24 01:32:00,45.5,42.4,22.57,SE,138,0.0,21.0,89,0.00,,,0.00,Wunderground v.1.15,2013-05-24 07:32:00,
2013-05-24 01:34:00,45.5,42.4,22.56,SE,138,0.0,21.0,89,0.00,,,0.00,Wunderground v.1.15,2013-05-24 07:34:00,
2013-05-24 01:40:00,45.3,42.2,22.56,South,173,0.0,21.0,89,0.00,,,0.00,Wunderground v.1.15,2013-05-24 07:40:00,
2013-05-24 01:42:00,45.1,42.1,22.56,SW,222,0.0,21.0,89,0.00,,,0.00,Wunderground v.1.15,2013-05-24 07:42:00,
2013-05-24 01:46:00,44.9,42.1,22.56,SW,222,0.0,21.0,90,0.00,,,0.00,Wunderground v.1.15,2013-05-24 07:46:00,
2013-05-24 01:49:00,44.8,42.0,22.55,SW,222,0.0,21.0,90,0.00,,,0.00,Wunderground v.1.15,2013-05-24 07:49:00,
2013-05-24 01:52:00,44.5,41.7,22.55,SW,233,0.0,21.0,90,0.00,,,0.00,Wunderground v.1.15,2013-05-24 07:52:00,
2013-05-24 01:54:00,44.4,41.7,22.55,SW,236,0.0,21.0,90,0.00,,,0.00,Wunderground v.1.15,2013-05-24 07:54:00,
2013-05-24 01:56:00,44.2,41.5,22.55,SW,236,0.0,21.0,90,0.00,,,0.00,Wunderground v.1.15,2013-05-24 07:56:00,
2013-05-24 01:58:00,44.1,41.4,22.55,SW,233,0.0,21.0,90,0.00,,,0.00,Wunderground v.1.15,2013-05-24 07:58:00,
2013-05-24 02:02:00,43.7,41.0,22.55,SW,236,0.0,21.0,90,0.00,,,0.00,Wunderground v.1.15,2013-05-24 08:02:00,
2013-05-24 02:08:00,43.3,40.8,22.54,East,90,0.0,21.0,91,0.00,,,0.00,Wunderground v.1.15,2013-05-24 08:08:00,
2013-05-24 02:14:00,43.5,41.3,22.54,SW,229,1.0,21.0,92,0.00,,,0.00,Wunderground v.1.15,2013-05-24 08:14:00,
2013-05-24 02:16:00,43.6,41.1,22.55,ESE,114,1.0,21.0,91,0.00,,,0.00,Wunderground v.1.15,2013-05-24 08:16:00,
2013-05-24 02:18:00,43.6,40.9,22.55,ESE,115,1.0,21.0,90,0.00,,,0.00,Wunderground v.1.15,2013-05-24 08:18:00,
2013-05-24 02:20:00,43.4,40.4,22.55,ESE,114,1.0,21.0,89,0.00,,,0.00,Wunderground v.1.15,2013-05-24 08:20:00,
2013-05-24 02:22:00,43.1,40.1,22.55,ESE,114,1.0,1.0,89,0.00,,,0.00,Wunderground v.1.15,2013-05-24 08:22:00,
2013-05-24 02:26:00,42.9,40.5,22.55,ESE,115,1.0,21.0,91,0.00,,,0.00,Wunderground v.1.15,2013-05-24 08:26:00,
2013-05-24 02:28:00,42.8,40.4,22.55,NNW,346,1.0,21.0,91,0.00,,,0.00,Wunderground v.1.15,2013-05-24 08:28:00,
2013-05-24 02:30:00,42.8,40.6,22.55,NNW,346,1.0,21.0,92,0.00,,,0.00,Wunderground v.1.15,2013-05-24 08:30:00,
2013-05-24 02:32:00,42.8,40.6,22.55,NNW,346,1.0,1.0,92,0.00,,,0.00,Wunderground v.1.15,2013-05-24 08:32:00,
2013-05-24 02:34:00,42.8,40.6,22.55,NNW,346,1.0,21.0,92,0.00,,,0.00,Wunderground v.1.15,2013-05-24 08:34:00,
2013-05-24 02:37:00,42.7,40.5,22.55,NNW,346,1.0,21.0,92,0.00,,,0.00,Wunderground v.1.15,2013-05-24 08:37:00,
2013-05-24 02:40:00,42.6,40.4,22.55,West,271,0.0,21.0,92,0.00,,,0.00,Wunderground v.1.15,2013-05-24 08:40:00,
2013-05-24 02:42:00,42.6,40.4,22.55,West,271,0.0,21.0,92,0.00,,,0.00,Wunderground v.1.15,2013-05-24 08:42:00,
2013-05-24 02:44:00,42.5,40.3,22.55,NW,322,0.0,21.0,92,0.00,,,0.00,Wunderground v.1.15,2013-05-24 08:44:00,
2013-05-24 02:48:00,42.3,40.1,22.55,NW,322,0.0,21.0,92,0.00,,,0.00,Wunderground v.1.15,2013-05-24 08:48:00,
2013-05-24 02:50:00,42.2,40.0,22.55,NW,322,0.0,21.0,92,0.00,,,0.00,Wunderground v.1.15,2013-05-24 08:50:00,
2013-05-24 02:52:00,42.1,39.7,22.54,West,277,0.0,21.0,91,0.00,,,0.00,Wunderground v.1.15,2013-05-24 08:52:00,
2013-05-24 02:56:00,41.8,39.6,22.54,SW,235,0.0,21.0,92,0.00,,,0.00,Wunderground v.1.15,2013-05-24 08:56:00,
2013-05-24 02:58:00,41.7,39.5,22.54,SW,235,0.0,21.0,92,0.00,,,0.00,Wunderground v.1.15,2013-05-24 08:58:00,
2013-05-24 03:00:00,41.6,39.4,22.54,SW,235,0.0,21.0,92,0.00,,,0.00,Wunderground v.1.15,2013-05-24 09:00:00,
2013-05-24 03:02:00,41.5,39.3,22.55,SW,236,0.0,21.0,92,0.00,,,0.00,Wunderground v.1.15,2013-05-24 09:02:00,
2013-05-24 03:08:00,41.1,39.0,22.55,SW,236,0.0,21.0,92,0.00,,,0.00,Wunderground v.1.15,2013-05-24 09:08:00,
2013-05-24 03:10:00,41.0,38.9,22.55,SW,235,0.0,21.0,92,0.00,,,0.00,Wunderground v.1.15,2013-05-24 09:10:00,
2013-05-24 03:12:00,40.9,38.8,22.55,SW,236,1.0,1.0,92,0.00,,,0.00,Wunderground v.1.15,2013-05-24 09:12:00,
2013-05-24 03:14:00,40.8,38.7,22.55,SW,235,0.0,21.0,92,0.00,,,0.00,Wunderground v.1.15,2013-05-24 09:14:00,
2013-05-24 03:18:00,40.7,38.6,22.55,WSW,249,0.0,21.0,92,0.00,,,0.00,Wunderground v.1.15,2013-05-24 09:18:00,
2013-05-24 03:20:00,40.5,38.4,22.55,WSW,249,0.0,21.0,92,0.00,,,0.00,Wunderground v.1.15,2013-05-24 09:20:00,
2013-05-24 03:25:00,40.2,38.1,22.55,WSW,249,0.0,21.0,92,0.00,,,0.00,Wunderground v.1.15,2013-05-24 09:25:00,
2013-05-24 03:26:00,40.2,38.3,22.55,NW,323,1.0,21.0,93,0.00,,,0.00,Wunderground v.1.15,2013-05-24 09:26:00,
2013-05-24 03:28:00,40.3,38.4,22.55,NW,311,1.0,21.0,93,0.00,,,0.00,Wunderground v.1.15,2013-05-24 09:28:00,
2013-05-24 03:32:00,40.0,37.9,22.55,WSW,238,1.0,1.0,92,0.00,,,0.00,Wunderground v.1.15,2013-05-24 09:32:00,
2013-05-24 03:34:00,39.9,37.8,22.55,WSW,238,1.0,21.0,92,0.00,,,0.00,Wunderground v.1.15,2013-05-24 09:34:00,
2013-05-24 03:36:00,39.7,37.6,22.55,SE,138,0.0,21.0,92,0.00,,,0.00,Wunderground v.1.15,2013-05-24 09:36:00,
2013-05-24 03:42:00,39.3,37.4,22.56,SE,138,0.0,21.0,93,0.00,,,0.00,Wunderground v.1.15,2013-05-24 09:42:00,
2013-05-24 03:48:00,39.2,37.3,22.55,NNW,344,1.0,21.0,93,0.00,,,0.00,Wunderground v.1.15,2013-05-24 09:48:00,
2013-05-24 03:50:00,39.2,37.3,22.55,NNW,344,1.0,21.0,93,0.00,,,0.00,Wunderground v.1.15,2013-05-24 09:50:00,
2013-05-24 03:52:00,39.1,37.2,22.55,NNW,344,1.0,1.0,93,0.00,,,0.00,Wunderground v.1.15,2013-05-24 09:52:00,
2013-05-24 03:54:00,39.0,37.1,22.56,SSW,201,1.0,21.0,93,0.00,,,0.00,Wunderground v.1.15,2013-05-24 09:54:00,
2013-05-24 03:56:00,38.9,37.0,22.55,SSE,148,1.0,21.0,93,0.00,,,0.00,Wunderground v.1.15,2013-05-24 09:56:00,
2013-05-24 03:58:00,38.7,36.9,22.56,SSE,148,0.0,21.0,93,0.00,,,0.00,Wunderground v.1.15,2013-05-24 09:58:00,
2013-05-24 04:02:00,38.5,36.7,22.56,SSE,148,0.0,21.0,93,0.00,,,0.00,Wunderground v.1.15,2013-05-24 10:02:00,
2013-05-24 04:04:00,38.4,36.6,22.56,SW,229,1.0,21.0,93,0.00,,,0.00,Wunderground v.1.15,2013-05-24 10:04:00,
2013-05-24 04:08:00,38.4,36.8,22.55,WSW,246,1.0,21.0,94,0.00,,,0.00,Wunderground v.1.15,2013-05-24 10:08:00,
2013-05-24 04:11:00,38.3,36.7,22.55,WSW,246,1.0,21.0,94,0.00,,,0.00,Wunderground v.1.15,2013-05-24 10:11:00,
2013-05-24 04:14:00,38.2,36.6,22.55,WSW,246,0.0,21.0,94,0.00,,,0.00,Wunderground v.1.15,2013-05-24 10:14:00,
2013-05-24 04:16:00,38.1,36.5,22.55,WSW,246,0.0,21.0,94,0.00,,,0.00,Wunderground v.1.15,2013-05-24 10:16:00,
2013-05-24 04:18:00,38.1,36.5,22.56,WSW,245,0.0,21.0,94,0.00,,,0.00,Wunderground v.1.15,2013-05-24 10:18:00,
2013-05-24 04:20:00,38.1,36.5,22.55,WSW,246,0.0,21.0,94,0.00,,,0.00,Wunderground v.1.15,2013-05-24 10:20:00,
2013-05-24 04:24:00,38.0,36.4,22.56,SSW,208,0.0,21.0,94,0.00,,,0.00,Wunderground v.1.15,2013-05-24 10:24:00,
2013-05-24 04:26:00,37.8,36.0,22.56,SSW,208,0.0,21.0,93,0.00,,,0.00,Wunderground v.1.15,2013-05-24 10:26:00,
2013-05-24 04:30:00,37.4,35.6,22.55,SSW,208,0.0,21.0,93,0.00,,,0.00,Wunderground v.1.15,2013-05-24 10:30:00,
2013-05-24 04:34:00,37.3,35.7,22.55,SSW,208,0.0,21.0,94,0.00,,,0.00,Wunderground v.1.15,2013-05-24 10:34:00,
2013-05-24 04:36:00,37.4,35.8,22.56,SSW,208,0.0,21.0,94,0.00,,,0.00,Wunderground v.1.15,2013-05-24 10:36:00,
2013-05-24 04:38:00,37.5,36.2,22.56,SSW,208,0.0,21.0,95,0.00,,,0.00,Wunderground v.1.15,2013-05-24 10:38:00,
2013-05-24 04:40:00,37.5,36.2,22.56,SSW,208,0.0,21.0,95,0.00,,,0.00,Wunderground v.1.15,2013-05-24 10:40:00,
2013-05-24 04:42:00,37.5,35.9,22.56,WSW,239,0.0,21.0,94,0.00,,,0.00,Wunderground v.1.15,2013-05-24 10:42:00,
2013-05-24 04:44:00,37.5,35.9,22.56,NW,316,0.0,21.0,94,0.00,,,0.00,Wunderground v.1.15,2013-05-24 10:44:00,
2013-05-24 04:46:00,37.5,36.2,22.56,NNW,327,1.0,21.0,95,0.00,,,0.00,Wunderground v.1.15,2013-05-24 10:46:00,
2013-05-24 04:48:00,37.5,36.2,22.56,NNW,328,1.0,21.0,95,0.00,,,0.00,Wunderground v.1.15,2013-05-24 10:48:00,
2013-05-24 04:54:00,37.5,36.2,22.55,WNW,287,1.0,21.0,95,0.00,,,0.00,Wunderground v.1.15,2013-05-24 10:54:00,
2013-05-24 04:57:00,37.5,35.9,22.55,ESE,112,0.0,21.0,94,0.00,,,0.00,Wunderground v.1.15,2013-05-24 10:57:00,
2013-05-24 05:00:00,37.2,35.6,22.55,ESE,112,0.0,21.0,94,0.00,,,0.00,Wunderground v.1.15,2013-05-24 11:00:00,
2013-05-24 05:02:00,37.1,35.5,22.56,ESE,111,0.0,21.0,94,0.00,,,0.00,Wunderground v.1.15,2013-05-24 11:02:00,
2013-05-24 05:06:00,37.0,35.4,22.55,ESE,112,0.0,21.0,94,0.00,,,0.00,Wunderground v.1.15,2013-05-24 11:06:00,
2013-05-24 05:08:00,36.9,35.3,22.56,NNW,342,0.0,21.0,94,0.00,,,0.00,Wunderground v.1.15,2013-05-24 11:08:00,
2013-05-24 05:12:00,36.8,35.2,22.56,NNW,343,0.0,21.0,94,0.00,,,0.00,Wunderground v.1.15,2013-05-24 11:12:00,
2013-05-24 05:14:00,36.8,35.2,22.56,NNW,343,0.0,21.0,94,0.00,,,0.00,Wunderground v.1.15,2013-05-24 11:14:00,
2013-05-24 05:18:00,36.7,35.1,22.56,SE,127,1.0,21.0,94,0.00,,,0.00,Wunderground v.1.15,2013-05-24 11:18:00,
2013-05-24 05:20:00,36.6,35.0,22.56,SE,127,1.0,21.0,94,0.00,,,0.00,Wunderground v.1.15,2013-05-24 11:20:00,
2013-05-24 05:24:00,36.5,34.9,22.56,SE,127,1.0,21.0,94,0.00,,,0.00,Wunderground v.1.15,2013-05-24 11:24:00,
2013-05-24 05:28:00,36.4,34.8,22.56,SE,127,0.0,21.0,94,0.00,,,0.00,Wunderground v.1.15,2013-05-24 11:28:00,
2013-05-24 05:30:00,36.3,34.7,22.56,North,8,0.0,21.0,94,0.00,,,0.00,Wunderground v.1.15,2013-05-24 11:30:00,
2013-05-24 05:32:00,36.2,34.6,22.56,North,8,1.0,21.0,94,0.00,,,0.00,Wunderground v.1.15,2013-05-24 11:32:00,
2013-05-24 05:36:00,35.8,34.2,22.56,North,349,1.0,21.0,94,0.00,,,0.00,Wunderground v.1.15,2013-05-24 11:36:00,
2013-05-24 05:40:00,35.8,34.2,22.56,NNW,327,1.0,21.0,94,0.00,,,0.00,Wunderground v.1.15,2013-05-24 11:40:00,
2013-05-24 05:47:00,35.8,34.5,22.56,WNW,294,1.0,21.0,95,0.00,,,0.00,Wunderground v.1.15,2013-05-24 11:47:00,
2013-05-24 05:48:00,35.8,34.5,22.56,SW,224,1.0,21.0,95,0.00,,,0.00,Wunderground v.1.15,2013-05-24 11:48:00,
2013-05-24 05:50:00,35.8,34.5,22.57,SW,222,1.0,21.0,95,0.00,,,0.00,Wunderground v.1.15,2013-05-24 11:50:00,
2013-05-24 05:56:00,36.1,34.8,22.57,SW,222,0.0,21.0,95,0.00,,,0.00,Wunderground v.1.15,2013-05-24 11:56:00,
2013-05-24 05:58:00,36.1,34.8,22.57,NNW,344,0.0,21.0,95,0.00,,,0.00,Wunderground v.1.15,2013-05-24 11:58:00,
2013-05-24 06:00:00,36.3,35.0,22.56,ESE,109,1.0,21.0,95,0.00,,,0.00,Wunderground v.1.15,2013-05-24 12:00:00,
2013-05-24 06:02:00,36.2,34.9,22.57,West,270,1.0,21.0,95,0.00,,,0.00,Wunderground v.1.15,2013-05-24 12:02:00,
2013-05-24 06:04:00,36.3,35.0,22.57,NNW,333,2.0,21.0,95,0.00,,,0.00,Wunderground v.1.15,2013-05-24 12:04:00,
2013-05-24 06:08:00,36.9,35.6,22.57,NNE,16,2.0,21.0,95,0.00,,,0.00,Wunderground v.1.15,2013-05-24 12:08:00,
2013-05-24 06:11:00,37.2,36.2,22.57,ESE,123,3.0,21.0,96,0.00,,,0.00,Wunderground v.1.15,2013-05-24 12:11:00,
2013-05-24 06:12:00,37.2,35.9,22.58,SSE,159,2.0,21.0,95,0.00,,,0.00,Wunderground v.1.15,2013-05-24 12:12:00,
2013-05-24 06:14:00,37.3,36.0,22.57,NNW,333,2.0,21.0,95,0.00,,,0.00,Wunderground v.1.15,2013-05-24 12:14:00,
2013-05-24 06:16:00,37.6,36.3,22.57,East,79,2.0,21.0,95,0.00,,,0.00,Wunderground v.1.15,2013-05-24 12:16:00,
2013-05-24 06:18:00,37.8,36.5,22.57,East,79,2.0,21.0,95,0.00,,,0.00,Wunderground v.1.15,2013-05-24 12:18:00,
2013-05-24 06:20:00,37.9,36.3,22.57,SW,217,1.0,21.0,94,0.00,,,0.00,Wunderground v.1.15,2013-05-24 12:20:00,
2013-05-24 06:22:00,37.9,36.3,22.57,East,91,1.0,21.0,94,0.00,,,0.00,Wunderground v.1.15,2013-05-24 12:22:00,
2013-05-24 06:26:00,37.9,36.1,22.57,South,189,1.0,21.0,93,0.00,,,0.00,Wunderground v.1.15,2013-05-24 12:26:00,
2013-05-24 06:28:00,37.9,36.1,22.57,South,188,1.0,21.0,93,0.00,,,0.00,Wunderground v.1.15,2013-05-24 12:28:00,
2013-05-24 06:34:00,38.0,36.2,22.57,South,188,0.0,21.0,93,0.00,,,0.00,Wunderground v.1.15,2013-05-24 12:34:00,
2013-05-24 06:36:00,38.0,36.2,22.58,South,188,0.0,21.0,93,0.00,,,0.00,Wunderground v.1.15,2013-05-24 12:36:00,
2013-05-24 06:40:00,38.1,36.3,22.58,SW,233,0.0,21.0,93,0.00,,,0.00,Wunderground v.1.15,2013-05-24 12:40:00,
2013-05-24 06:44:00,38.3,36.5,22.58,South,181,1.0,21.0,93,0.00,,,0.00,Wunderground v.1.15,2013-05-24 12:44:00,
2013-05-24 06:46:00,38.4,36.6,22.58,South,181,1.0,21.0,93,0.00,,,0.00,Wunderground v.1.15,2013-05-24 12:46:00,
2013-05-24 06:50:00,38.6,36.8,22.58,South,181,0.0,21.0,93,0.00,,,0.00,Wunderground v.1.15,2013-05-24 12:50:00,
2013-05-24 06:52:00,38.7,36.9,22.58,South,181,0.0,21.0,93,0.00,,,0.00,Wunderground v.1.15,2013-05-24 12:52:00,
2013-05-24 06:54:00,38.9,37.0,22.58,SW,229,0.0,21.0,93,0.00,,,0.00,Wunderground v.1.15,2013-05-24 12:54:00,
2013-05-24 06:57:00,39.1,37.2,22.58,East,98,1.0,21.0,93,0.00,,,0.00,Wunderground v.1.15,2013-05-24 12:57:00,
2013-05-24 06:59:00,39.2,37.3,22.58,East,99,1.0,21.0,93,0.00,,,0.00,Wunderground v.1.15,2013-05-24 12:59:00,
2013-05-24 07:02:00,39.5,37.4,22.58,NW,326,1.0,21.0,92,0.00,,,0.00,Wunderground v.1.15,2013-05-24 13:02:00,
2013-05-24 07:04:00,39.6,37.5,22.58,NNE,25,1.0,21.0,92,0.00,,,0.00,Wunderground v.1.15,2013-05-24 13:04:00,
2013-05-24 07:10:00,40.2,38.1,22.58,SW,218,1.0,21.0,92,0.00,,,0.00,Wunderground v.1.15,2013-05-24 13:10:00,
2013-05-24 07:12:00,40.4,38.0,22.58,SW,218,1.0,1.0,91,0.00,,,0.00,Wunderground v.1.15,2013-05-24 13:12:00,
2013-05-24 07:14:00,40.7,38.3,22.58,SW,218,1.0,21.0,91,0.00,,,0.00,Wunderground v.1.15,2013-05-24 13:14:00,
2013-05-24 07:21:00,41.7,39.3,22.58,SSW,197,0.0,21.0,91,0.00,,,0.00,Wunderground v.1.15,2013-05-24 13:21:00,
2013-05-24 07:22:00,41.9,39.2,22.58,SSW,197,0.0,21.0,90,0.00,,,0.00,Wunderground v.1.15,2013-05-24 13:22:00,
2013-05-24 07:24:00,42.2,39.2,22.58,SSE,156,0.0,21.0,89,0.00,,,0.00,Wunderground v.1.15,2013-05-24 13:24:00,
2013-05-24 07:26:00,42.4,39.4,22.59,SSW,212,0.0,21.0,89,0.00,,,0.00,Wunderground v.1.15,2013-05-24 13:26:00,
2013-05-24 07:32:00,42.8,39.8,22.59,South,169,1.0,1.0,89,0.00,,,0.00,Wunderground v.1.15,2013-05-24 13:32:00,
2013-05-24 07:34:00,42.9,39.6,22.59,South,169,1.0,21.0,88,0.00,,,0.00,Wunderground v.1.15,2013-05-24 13:34:00,
2013-05-24 07:36:00,43.0,39.7,22.59,North,352,1.0,21.0,88,0.00,,,0.00,Wunderground v.1.15,2013-05-24 13:36:00,
2013-05-24 07:38:00,43.2,39.6,22.59,North,352,1.0,21.0,87,0.00,,,0.00,Wunderground v.1.15,2013-05-24 13:38:00,
2013-05-24 07:40:00,43.6,40.3,22.59,SSE,148,1.0,21.0,88,0.00,,,0.00,Wunderground v.1.15,2013-05-24 13:40:00,
2013-05-24 07:43:00,44.0,40.7,22.59,SSE,148,1.0,1.0,88,0.00,,,0.00,Wunderground v.1.15,2013-05-24 13:43:00,
2013-05-24 07:45:00,44.4,40.8,22.59,SSE,162,1.0,21.0,87,0.00,,,0.00,Wunderground v.1.15,2013-05-24 13:45:00,
2013-05-24 07:48:00,45.1,40.9,22.59,SE,141,1.0,21.0,85,0.00,,,0.00,Wunderground v.1.15,2013-05-24 13:48:00,
2013-05-24 07:52:00,45.6,40.7,22.59,WSW,248,1.0,1.0,83,0.00,,,0.00,Wunderground v.1.15,2013-05-24 13:52:00,
2013-05-24 07:56:00,46.4,41.5,22.59,WSW,240,1.0,21.0,83,0.00,,,0.00,Wunderground v.1.15,2013-05-24 13:56:00,
2013-05-24 08:00:00,47.1,41.9,22.59,SSE,154,0.0,21.0,82,0.00,,,0.00,Wunderground v.1.15,2013-05-24 14:00:00,
2013-05-24 08:02:00,47.3,41.8,22.59,SSE,153,0.0,21.0,81,0.00,,,0.00,Wunderground v.1.15,2013-05-24 14:02:00,
2013-05-24 08:05:00,47.5,42.0,22.59,South,190,0.0,21.0,81,0.00,,,0.00,Wunderground v.1.15,2013-05-24 14:05:00,
2013-05-24 08:07:00,47.7,42.2,22.59,ESE,115,0.0,21.0,81,0.00,,,0.00,Wunderground v.1.15,2013-05-24 14:07:00,
2013-05-24 08:10:00,48.3,42.7,22.59,SE,144,1.0,21.0,81,0.00,,,0.00,Wunderground v.1.15,2013-05-24 14:10:00,
2013-05-24 08:12:00,48.7,42.8,22.59,SSE,167,1.0,21.0,80,0.00,,,0.00,Wunderground v.1.15,2013-05-24 14:12:00,
2013-05-24 08:14:00,48.9,42.3,22.59,SE,145,1.0,21.0,78,0.00,,,0.00,Wunderground v.1.15,2013-05-24 14:14:00,
2013-05-24 08:18:00,49.8,38.9,22.59,SW,225,1.0,21.0,66,0.00,,,0.00,Wunderground v.1.15,2013-05-24 14:18:00,
2013-05-24 08:20:00,50.4,39.5,22.59,SSE,162,1.0,21.0,66,0.00,,,0.00,Wunderground v.1.15,2013-05-24 14:20:00,
2013-05-24 08:26:00,53.5,32.1,22.59,WSW,240,1.0,21.0,44,0.00,,,0.00,Wunderground v.1.15,2013-05-24 14:26:00,
2013-05-24 08:28:00,54.7,33.8,22.59,WSW,253,1.0,21.0,45,0.00,,,0.00,Wunderground v.1.15,2013-05-24 14:28:00,
2013-05-24 08:33:00,56.9,30.2,22.59,West,259,2.0,2.0,36,0.00,,,0.00,Wunderground v.1.15,2013-05-24 14:33:00,
2013-05-24 08:34:00,57.6,26.4,22.60,WNW,303,2.0,21.0,30,0.00,,,0.00,Wunderground v.1.15,2013-05-24 14:34:00,
2013-05-24 08:36:00,58.2,27.7,22.60,SW,228,2.0,21.0,31,0.00,,,0.00,Wunderground v.1.15,2013-05-24 14:36:00,
2013-05-24 08:38:00,58.7,24.8,22.60,SSW,211,2.0,21.0,27,0.00,,,0.00,Wunderground v.1.15,2013-05-24 14:38:00,
2013-05-24 08:42:00,59.8,26.6,22.60,West,269,2.0,21.0,28,0.00,,,0.00,Wunderground v.1.15,2013-05-24 14:42:00,
2013-05-24 08:44:00,60.2,26.9,22.60,WSW,252,3.0,21.0,28,0.00,,,0.00,Wunderground v.1.15,2013-05-24 14:44:00,
2013-05-24 08:50:00,60.9,23.8,22.60,West,280,2.0,21.0,24,0.00,,,0.00,Wunderground v.1.15,2013-05-24 14:50:00,
2013-05-24 08:53:00,61.0,23.9,22.60,WSW,242,3.0,21.0,24,0.00,,,0.00,Wunderground v.1.15,2013-05-24 14:53:00,
2013-05-24 08:55:00,61.1,25.9,22.60,NNE,18,3.0,21.0,26,0.00,,,0.00,Wunderground v.1.15,2013-05-24 14:55:00,
2013-05-24 08:58:00,61.2,24.1,22.60,SW,219,4.0,21.0,24,0.00,,,0.00,Wunderground v.1.15,2013-05-24 14:58:00,
2013-05-24 09:02:00,61.4,24.2,22.60,SW,229,4.0,4.0,24,0.00,,,0.00,Wunderground v.1.15,2013-05-24 15:02:00,
2013-05-24 09:04:00,61.4,25.2,22.61,West,262,4.0,21.0,25,0.00,,,0.00,Wunderground v.1.15,2013-05-24 15:04:00,
2013-05-24 09:08:00,61.8,23.6,22.60,NNE,20,3.0,21.0,23,0.00,,,0.00,Wunderground v.1.15,2013-05-24 15:08:00,
2013-05-24 09:10:00,61.8,21.4,22.60,WSW,240,3.0,21.0,21,0.00,,,0.00,Wunderground v.1.15,2013-05-24 15:10:00,
2013-05-24 09:14:00,61.6,23.4,22.60,WSW,249,4.0,21.0,23,0.00,,,0.00,Wunderground v.1.15,2013-05-24 15:14:00,
2013-05-24 09:17:00,61.4,22.2,22.60,SW,226,6.0,21.0,22,0.00,,,0.00,Wunderground v.1.15,2013-05-24 15:17:00,
2013-05-24 09:19:00,61.5,23.3,22.60,SW,214,6.0,21.0,23,0.00,,,0.00,Wunderground v.1.15,2013-05-24 15:19:00,
2013-05-24 09:20:00,61.5,24.3,22.60,NNE,13,7.0,21.0,24,0.00,,,0.00,Wunderground v.1.15,2013-05-24 15:20:00,
2013-05-24 09:24:00,61.8,21.4,22.61,WSW,253,5.0,21.0,21,0.00,,,0.00,Wunderground v.1.15,2013-05-24 15:24:00,
2013-05-24 09:26:00,61.7,23.5,22.60,WNW,299,5.0,21.0,23,0.00,,,0.00,Wunderground v.1.15,2013-05-24 15:26:00,
2013-05-24 09:30:00,61.8,22.5,22.61,SW,236,4.0,21.0,22,0.00,,,0.00,Wunderground v.1.15,2013-05-24 15:30:00,
2013-05-24 09:34:00,61.9,23.6,22.61,West,267,4.0,5.0,23,0.00,,,0.00,Wunderground v.1.15,2013-05-24 15:34:00,
2013-05-24 09:36:00,61.9,22.6,22.61,WSW,257,4.0,6.0,22,0.00,,,0.00,Wunderground v.1.15,2013-05-24 15:36:00,
2013-05-24 09:39:00,62.0,22.7,22.61,WNW,295,4.0,21.0,22,0.00,,,0.00,Wunderground v.1.15,2013-05-24 15:39:00,
2013-05-24 09:42:00,62.2,23.9,22.61,WNW,282,3.0,3.0,23,0.00,,,0.00,Wunderground v.1.15,2013-05-24 15:42:00,
2013-05-24 09:44:00,62.1,22.8,22.61,West,280,4.0,4.0,22,0.00,,,0.00,Wunderground v.1.15,2013-05-24 15:44:00,
2013-05-24 09:46:00,62.1,21.7,22.61,WSW,243,3.0,6.0,21,0.00,,,0.00,Wunderground v.1.15,2013-05-24 15:46:00,
2013-05-24 09:48:00,61.9,22.6,22.61,WSW,240,4.0,21.0,22,0.00,,,0.00,Wunderground v.1.15,2013-05-24 15:48:00,
2013-05-24 09:50:00,61.9,23.6,22.61,WNW,297,4.0,21.0,23,0.00,,,0.00,Wunderground v.1.15,2013-05-24 15:50:00,
2013-05-24 09:52:00,62.1,25.8,22.61,South,172,4.0,4.0,25,0.00,,,0.00,Wunderground v.1.15,2013-05-24 15:52:00,
2013-05-24 09:54:00,62.3,24.0,22.61,WSW,255,4.0,21.0,23,0.00,,,0.00,Wunderground v.1.15,2013-05-24 15:54:00,
2013-05-24 09:56:00,62.4,25.1,22.61,SW,233,4.0,21.0,24,0.00,,,0.00,Wunderground v.1.15,2013-05-24 15:56:00,
2013-05-24 10:00:00,62.4,24.1,22.61,SW,236,4.0,21.0,23,0.00,,,0.00,Wunderground v.1.15,2013-05-24 16:00:00,
2013-05-24 10:02:00,62.5,23.1,22.61,WSW,256,5.0,5.0,22,0.00,,,0.00,Wunderground v.1.15,2013-05-24 16:02:00,
2013-05-24 10:05:00,62.5,23.1,22.61,SW,218,5.0,8.0,22,0.00,,,0.00,Wunderground v.1.15,2013-05-24 16:05:00,
2013-05-24 10:08:00,62.5,22.0,22.61,WSW,242,5.0,21.0,21,0.00,,,0.00,Wunderground v.1.15,2013-05-24 16:08:00,
2013-05-24 10:12:00,62.7,22.2,22.60,SW,218,5.0,5.0,21,0.00,,,0.00,Wunderground v.1.15,2013-05-24 16:12:00,
2013-05-24 10:14:00,62.9,22.3,22.61,NW,305,5.0,21.0,21,0.00,,,0.00,Wunderground v.1.15,2013-05-24 16:14:00,
2013-05-24 10:16:00,63.0,22.4,22.60,SW,236,5.0,21.0,21,0.00,,,0.00,Wunderground v.1.15,2013-05-24 16:16:00,
2013-05-24 10:18:00,62.9,22.3,22.60,WNW,288,5.0,21.0,21,0.00,,,0.00,Wunderground v.1.15,2013-05-24 16:18:00,
2013-05-24 10:20:00,62.9,21.2,22.60,SW,228,4.0,21.0,20,0.00,,,0.00,Wunderground v.1.15,2013-05-24 16:20:00,
2013-05-24 10:24:00,62.9,22.3,22.60,West,259,5.0,21.0,21,0.00,,,0.00,Wunderground v.1.15,2013-05-24 16:24:00,
2013-05-24 10:27:00,63.0,21.2,22.60,WSW,246,5.0,21.0,20,0.00,,,0.00,Wunderground v.1.15,2013-05-24 16:27:00,
2013-05-24 10:30:00,63.6,20.5,22.61,SW,229,5.0,21.0,19,0.00,,,0.00,Wunderground v.1.15,2013-05-24 16:30:00,
2013-05-24 10:32:00,63.8,23.1,22.60,SSW,195,5.0,21.0,21,0.00,,,0.00,Wunderground v.1.15,2013-05-24 16:32:00,
2013-05-24 10:34:00,64.0,23.2,22.61,SSW,209,5.0,21.0,21,0.00,,,0.00,Wunderground v.1.15,2013-05-24 16:34:00,
2013-05-24 10:36:00,64.1,22.2,22.60,SSW,212,4.0,21.0,20,0.00,,,0.00,Wunderground v.1.15,2013-05-24 16:36:00,
2013-05-24 10:38:00,64.3,23.5,22.60,SW,224,4.0,21.0,21,0.00,,,0.00,Wunderground v.1.15,2013-05-24 16:38:00,
2013-05-24 10:42:00,64.7,22.7,22.60,SW,214,4.0,4.0,20,0.00,,,0.00,Wunderground v.1.15,2013-05-24 16:42:00,
2013-05-24 10:44:00,64.7,22.7,22.60,SW,217,5.0,9.0,20,0.00,,,0.00,Wunderground v.1.15,2013-05-24 16:44:00,
2013-05-24 10:46:00,64.8,25.0,22.60,SW,232,5.0,21.0,22,0.00,,,0.00,Wunderground v.1.15,2013-05-24 16:46:00,
2013-05-24 10:51:00,65.6,23.4,22.60,SW,222,5.0,21.0,20,0.00,,,0.00,Wunderground v.1.15,2013-05-24 16:51:00,
2013-05-24 10:53:00,65.9,22.4,22.60,WSW,243,5.0,5.0,19,0.00,,,0.00,Wunderground v.1.15,2013-05-24 16:53:00,
2013-05-24 10:54:00,66.0,21.2,22.60,WSW,245,4.0,21.0,18,0.00,,,0.00,Wunderground v.1.15,2013-05-24 16:54:00,
2013-05-24 10:56:00,66.2,22.7,22.60,South,180,4.0,21.0,19,0.00,,,0.00,Wunderground v.1.15,2013-05-24 16:56:00,
2013-05-24 11:00:00,66.9,23.3,22.60,West,267,3.0,21.0,19,0.00,,,0.00,Wunderground v.1.15,2013-05-24 17:00:00,
2013-05-24 11:02:00,67.3,24.8,22.60,West,271,3.0,3.0,20,0.00,,,0.00,Wunderground v.1.15,2013-05-24 17:02:00,
2013-05-24 11:04:00,67.6,22.5,22.60,WSW,248,3.0,4.0,18,0.00,,,0.00,Wunderground v.1.15,2013-05-24 17:04:00,
2013-05-24 11:06:00,67.7,25.1,22.60,WSW,243,3.0,21.0,20,0.00,,,0.00,Wunderground v.1.15,2013-05-24 17:06:00,
2013-05-24 11:08:00,67.8,24.0,22.60,NW,315,3.0,21.0,19,0.00,,,0.00,Wunderground v.1.15,2013-05-24 17:08:00,
2013-05-24 11:10:00,67.9,22.8,22.60,SSW,207,3.0,21.0,18,0.00,,,0.00,Wunderground v.1.15,2013-05-24 17:10:00,
2013-05-24 11:13:00,67.4,23.7,22.60,West,260,4.0,4.0,19,0.00,,,0.00,Wunderground v.1.15,2013-05-24 17:13:00,
2013-05-24 11:14:00,67.5,23.7,22.60,WNW,284,4.0,21.0,19,0.00,,,0.00,Wunderground v.1.15,2013-05-24 17:14:00,
2013-05-24 11:16:00,67.5,25.0,22.60,SW,215,4.0,21.0,20,0.00,,,0.00,Wunderground v.1.15,2013-05-24 17:16:00,
2013-05-24 11:18:00,67.4,23.7,22.60,NNW,328,4.0,21.0,19,0.00,,,0.00,Wunderground v.1.15,2013-05-24 17:18:00,
2013-05-24 11:20:00,67.6,21.2,22.60,North,355,4.0,21.0,17,0.00,,,0.00,Wunderground v.1.15,2013-05-24 17:20:00,
2013-05-24 11:24:00,68.1,21.6,22.60,West,260,3.0,7.0,17,0.00,,,0.00,Wunderground v.1.15,2013-05-24 17:24:00,
2013-05-24 11:26:00,68.1,21.6,22.60,SE,143,3.0,21.0,17,0.00,,,0.00,Wunderground v.1.15,2013-05-24 17:26:00,
2013-05-24 11:28:00,68.1,23.0,22.60,SW,228,3.0,21.0,18,0.00,,,0.00,Wunderground v.1.15,2013-05-24 17:28:00,
2013-05-24 11:32:00,68.0,20.1,22.60,North,8,4.0,4.0,16,0.00,,,0.00,Wunderground v.1.15,2013-05-24 17:32:00,
2013-05-24 11:36:00,68.3,21.8,22.60,SW,219,3.0,21.0,17,0.00,,,0.00,Wunderground v.1.15,2013-05-24 17:36:00,
2013-05-24 11:43:00,68.1,21.6,22.61,South,177,5.0,21.0,17,0.00,,,0.00,Wunderground v.1.15,2013-05-24 17:43:00,
2013-05-24 11:44:00,67.9,20.0,22.61,SW,222,6.0,21.0,16,0.00,,,0.00,Wunderground v.1.15,2013-05-24 17:44:00,
2013-05-24 11:48:00,67.7,21.3,22.60,SSE,148,7.0,21.0,17,0.00,,,0.00,Wunderground v.1.15,2013-05-24 17:48:00,
2013-05-24 11:50:00,67.8,22.7,22.60,SW,226,6.0,21.0,18,0.00,,,0.00,Wunderground v.1.15,2013-05-24 17:50:00,
2013-05-24 11:52:00,68.0,24.2,22.60,SSW,202,5.0,5.0,19,0.00,,,0.00,Wunderground v.1.15,2013-05-24 17:52:00,
2013-05-24 11:54:00,68.1,20.2,22.60,SSW,200,5.0,21.0,16,0.00,,,0.00,Wunderground v.1.15,2013-05-24 17:54:00,
2013-05-24 11:56:00,68.1,21.6,22.60,WSW,240,4.0,21.0,17,0.00,,,0.00,Wunderground v.1.15,2013-05-24 17:56:00,
2013-05-24 11:58:00,67.8,19.9,22.60,SSW,201,4.0,21.0,16,0.00,,,0.00,Wunderground v.1.15,2013-05-24 17:58:00,
2013-05-24 12:00:00,67.8,24.0,22.60,SSW,195,5.0,21.0,19,0.00,,,0.00,Wunderground v.1.15,2013-05-24 18:00:00,
2013-05-24 12:02:00,68.0,22.9,22.60,South,171,5.0,21.0,18,0.00,,,0.00,Wunderground v.1.15,2013-05-24 18:02:00,
2013-05-24 12:06:00,67.8,19.9,22.60,SW,236,6.0,21.0,16,0.00,,,0.00,Wunderground v.1.15,2013-05-24 18:06:00,
2013-05-24 12:11:00,67.6,22.5,22.60,SW,222,6.0,21.0,18,0.00,,,0.00,Wunderground v.1.15,2013-05-24 18:11:00,
2013-05-24 12:12:00,67.8,25.2,22.60,SSW,201,7.0,7.0,20,0.00,,,0.00,Wunderground v.1.15,2013-05-24 18:12:00,
2013-05-24 12:14:00,68.2,24.3,22.60,WSW,252,7.0,21.0,19,0.00,,,0.00,Wunderground v.1.15,2013-05-24 18:14:00,
2013-05-24 12:16:00,68.1,23.0,22.60,WSW,243,6.0,21.0,18,0.00,,,0.00,Wunderground v.1.15,2013-05-24 18:16:00,
2013-05-24 12:20:00,68.5,21.9,22.60,NW,305,5.0,21.0,17,0.00,,,0.00,Wunderground v.1.15,2013-05-24 18:20:00,
2013-05-24 12:22:00,68.9,22.2,22.60,SW,233,4.0,21.0,17,0.00,,,0.00,Wunderground v.1.15,2013-05-24 18:22:00,
2013-05-24 12:26:00,68.6,23.4,22.60,West,267,5.0,21.0,18,0.00,,,0.00,Wunderground v.1.15,2013-05-24 18:26:00,
2013-05-24 12:28:00,68.5,21.9,22.60,WNW,298,6.0,21.0,17,0.00,,,0.00,Wunderground v.1.15,2013-05-24 18:28:00,
2013-05-24 12:31:00,68.6,22.0,22.60,WSW,245,6.0,21.0,17,0.00,,,0.00,Wunderground v.1.15,2013-05-24 18:31:00,
2013-05-24 12:36:00,68.7,23.4,22.60,NW,323,6.0,21.0,18,0.00,,,0.00,Wunderground v.1.15,2013-05-24 18:36:00,
2013-05-24 12:40:00,68.8,23.5,22.60,SW,233,6.0,21.0,18,0.00,,,0.00,Wunderground v.1.15,2013-05-24 18:40:00,
2013-05-24 12:42:00,69.0,23.7,22.60,West,280,5.0,5.0,18,0.00,,,0.00,Wunderground v.1.15,2013-05-24 18:42:00,
2013-05-24 12:44:00,69.1,22.4,22.60,West,260,5.0,21.0,17,0.00,,,0.00,Wunderground v.1.15,2013-05-24 18:44:00,
2013-05-24 12:46:00,69.0,22.3,22.60,West,267,5.0,21.0,17,0.00,,,0.00,Wunderground v.1.15,2013-05-24 18:46:00,
2013-05-24 12:50:00,68.8,22.2,22.60,WSW,256,5.0,21.0,17,0.00,,,0.00,Wunderground v.1.15,2013-05-24 18:50:00,
2013-05-24 12:52:00,69.0,23.7,22.60,WSW,258,5.0,21.0,18,0.00,,,0.00,Wunderground v.1.15,2013-05-24 18:52:00,
2013-05-24 12:55:00,69.0,23.7,22.60,WSW,250,6.0,21.0,18,0.00,,,0.00,Wunderground v.1.15,2013-05-24 18:55:00,
2013-05-24 12:57:00,68.8,23.5,22.60,SE,146,6.0,21.0,18,0.00,,,0.00,Wunderground v.1.15,2013-05-24 18:57:00,
2013-05-24 13:02:00,69.7,24.3,22.59,SSW,211,6.0,6.0,18,0.00,,,0.00,Wunderground v.1.15,2013-05-24 19:02:00,
2013-05-24 13:04:00,70.2,23.3,22.59,WSW,238,5.0,21.0,17,0.00,,,0.00,Wunderground v.1.15,2013-05-24 19:04:00,
2013-05-24 13:06:00,70.3,24.8,22.59,SSE,167,4.0,21.0,18,0.00,,,0.00,Wunderground v.1.15,2013-05-24 19:06:00,
2013-05-24 13:08:00,70.6,27.5,22.59,SW,225,3.0,21.0,20,0.00,,,0.00,Wunderground v.1.15,2013-05-24 19:08:00,
2013-05-24 13:10:00,71.0,27.9,22.59,SSW,193,3.0,21.0,20,0.00,,,0.00,Wunderground v.1.15,2013-05-24 19:10:00,
2013-05-24 13:14:00,71.2,22.7,22.59,SW,228,3.0,5.0,16,0.00,,,0.00,Wunderground v.1.15,2013-05-24 19:14:00,
2013-05-24 13:17:00,70.7,22.3,22.59,WSW,257,4.0,8.0,16,0.00,,,0.00,Wunderground v.1.15,2013-05-24 19:17:00,
2013-05-24 13:20:00,70.1,21.8,22.59,West,259,5.0,21.0,16,0.00,,,0.00,Wunderground v.1.15,2013-05-24 19:20:00,
2013-05-24 13:22:00,70.2,24.7,22.59,West,267,5.0,21.0,18,0.00,,,0.00,Wunderground v.1.15,2013-05-24 19:22:00,
2013-05-24 13:28:00,70.7,23.7,22.59,SSW,207,5.0,21.0,17,0.00,,,0.00,Wunderground v.1.15,2013-05-24 19:28:00,
2013-05-24 13:30:00,70.7,23.7,22.59,West,263,5.0,21.0,17,0.00,,,0.00,Wunderground v.1.15,2013-05-24 19:30:00,
2013-05-24 13:32:00,70.5,23.5,22.59,WSW,256,5.0,21.0,17,0.00,,,0.00,Wunderground v.1.15,2013-05-24 19:32:00,
2013-05-24 13:36:00,70.7,23.7,22.59,SW,216,6.0,21.0,17,0.00,,,0.00,Wunderground v.1.15,2013-05-24 19:36:00,
2013-05-24 13:38:00,71.1,25.4,22.59,NW,320,6.0,21.0,18,0.00,,,0.00,Wunderground v.1.15,2013-05-24 19:38:00,
2013-05-24 13:43:00,70.6,22.2,22.59,SSW,210,7.0,7.0,16,0.00,,,0.00,Wunderground v.1.15,2013-05-24 19:43:00,
2013-05-24 13:45:00,70.6,22.2,22.59,SSE,165,6.0,21.0,16,0.00,,,0.00,Wunderground v.1.15,2013-05-24 19:45:00,
2013-05-24 13:50:00,70.8,22.3,22.59,WNW,297,5.0,21.0,16,0.00,,,0.00,Wunderground v.1.15,2013-05-24 19:50:00,
2013-05-24 13:54:00,71.2,22.7,22.59,West,263,5.0,9.0,16,0.00,,,0.00,Wunderground v.1.15,2013-05-24 19:54:00,
2013-05-24 13:56:00,71.1,21.1,22.59,SE,127,5.0,21.0,15,0.00,,,0.00,Wunderground v.1.15,2013-05-24 19:56:00,
2013-05-24 13:58:00,71.1,21.1,22.59,South,191,6.0,21.0,15,0.00,,,0.00,Wunderground v.1.15,2013-05-24 19:58:00,
2013-05-24 14:00:00,71.1,24.0,22.59,South,179,6.0,21.0,17,0.00,,,0.00,Wunderground v.1.15,2013-05-24 20:00:00,
2013-05-24 14:05:00,71.3,22.7,22.59,WSW,252,5.0,10.0,16,0.00,,,0.00,Wunderground v.1.15,2013-05-24 20:05:00,
2013-05-24 14:07:00,71.2,24.1,22.58,SE,126,5.0,21.0,17,0.00,,,0.00,Wunderground v.1.15,2013-05-24 20:07:00,
2013-05-24 14:08:00,71.8,24.6,22.58,SE,145,4.0,21.0,17,0.00,,,0.00,Wunderground v.1.15,2013-05-24 20:08:00,
2013-05-24 14:10:00,71.8,21.6,22.58,SSE,153,4.0,21.0,15,0.00,,,0.00,Wunderground v.1.15,2013-05-24 20:10:00,
2013-05-24 14:14:00,71.9,18.3,22.58,WSW,240,4.0,5.0,13,0.00,,,0.00,Wunderground v.1.15,2013-05-24 20:14:00,
2013-05-24 14:18:00,72.2,28.9,22.58,South,178,3.0,21.0,20,0.00,,,0.00,Wunderground v.1.15,2013-05-24 20:18:00,
2013-05-24 14:22:00,72.0,32.1,22.58,South,184,4.0,21.0,23,0.00,,,0.00,Wunderground v.1.15,2013-05-24 20:22:00,
2013-05-24 14:24:00,71.9,31.0,22.58,SSE,165,4.0,21.0,22,0.00,,,0.00,Wunderground v.1.15,2013-05-24 20:24:00,
2013-05-24 14:26:00,71.8,32.0,22.58,ESE,105,5.0,21.0,23,0.00,,,0.00,Wunderground v.1.15,2013-05-24 20:26:00,
2013-05-24 14:31:00,72.1,30.0,22.58,SSE,167,4.0,21.0,21,0.00,,,0.00,Wunderground v.1.15,2013-05-24 20:31:00,
2013-05-24 14:32:00,71.8,29.7,22.58,South,184,5.0,21.0,21,0.00,,,0.00,Wunderground v.1.15,2013-05-24 20:32:00,
2013-05-24 14:36:00,71.5,27.0,22.58,SSW,205,5.0,21.0,19,0.00,,,0.00,Wunderground v.1.15,2013-05-24 20:36:00,
2013-05-24 14:38:00,71.4,31.6,22.58,South,181,5.0,21.0,23,0.00,,,0.00,Wunderground v.1.15,2013-05-24 20:38:00,
2013-05-24 14:40:00,71.7,30.8,22.58,SE,139,5.0,21.0,22,0.00,,,0.00,Wunderground v.1.15,2013-05-24 20:40:00,
2013-05-24 14:46:00,71.4,28.2,22.58,SSE,148,5.0,21.0,20,0.00,,,0.00,Wunderground v.1.15,2013-05-24 20:46:00,
2013-05-24 14:53:00,71.1,31.4,22.58,South,188,5.0,5.0,23,0.00,,,0.00,Wunderground v.1.15,2013-05-24 20:53:00,
2013-05-24 14:54:00,71.5,29.5,22.58,ESE,115,5.0,21.0,21,0.00,,,0.00,Wunderground v.1.15,2013-05-24 20:54:00,
2013-05-24 15:00:00,72.4,32.5,22.58,SSE,166,4.0,21.0,23,0.00,,,0.00,Wunderground v.1.15,2013-05-24 21:00:00,
2013-05-24 15:02:00,72.4,27.8,22.58,SSW,207,4.0,21.0,19,0.00,,,0.00,Wunderground v.1.15,2013-05-24 21:02:00,
2013-05-24 15:06:00,72.1,28.8,22.58,SSW,204,5.0,21.0,20,0.00,,,0.00,Wunderground v.1.15,2013-05-24 21:06:00,
2013-05-24 15:08:00,72.1,30.0,22.58,SSE,166,5.0,21.0,21,0.00,,,0.00,Wunderground v.1.15,2013-05-24 21:08:00,
2013-05-24 15:12:00,72.0,29.9,22.58,South,172,6.0,6.0,21,0.00,,,0.00,Wunderground v.1.15,2013-05-24 21:12:00,
2013-05-24 15:14:00,71.6,29.6,22.58,South,191,6.0,21.0,21,0.00,,,0.00,Wunderground v.1.15,2013-05-24 21:14:00,
2013-05-24 15:17:00,70.9,29.0,22.58,SW,215,6.0,21.0,21,0.00,,,0.00,Wunderground v.1.15,2013-05-24 21:17:00,
2013-05-24 15:19:00,70.5,28.7,22.58,SE,144,6.0,21.0,21,0.00,,,0.00,Wunderground v.1.15,2013-05-24 21:19:00,
2013-05-24 15:20:00,70.5,31.9,22.58,South,171,5.0,21.0,24,0.00,,,0.00,Wunderground v.1.15,2013-05-24 21:20:00,
2013-05-24 15:24:00,71.0,30.2,22.58,SSW,205,5.0,21.0,22,0.00,,,0.00,Wunderground v.1.15,2013-05-24 21:24:00,
2013-05-24 15:26:00,71.0,31.3,22.58,South,172,5.0,21.0,23,0.00,,,0.00,Wunderground v.1.15,2013-05-24 21:26:00,
2013-05-24 15:30:00,71.1,32.5,22.58,South,169,5.0,21.0,24,0.00,,,0.00,Wunderground v.1.15,2013-05-24 21:30:00,
2013-05-24 15:34:00,71.3,32.6,22.58,ESE,121,5.0,21.0,24,0.00,,,0.00,Wunderground v.1.15,2013-05-24 21:34:00,
2013-05-24 15:36:00,71.6,32.9,22.58,SSW,209,4.0,21.0,24,0.00,,,0.00,Wunderground v.1.15,2013-05-24 21:36:00,
2013-05-24 15:40:00,71.4,29.4,22.57,SE,134,4.0,21.0,21,0.00,,,0.00,Wunderground v.1.15,2013-05-24 21:40:00,
2013-05-24 15:43:00,71.0,30.2,22.57,South,186,4.0,4.0,22,0.00,,,0.00,Wunderground v.1.15,2013-05-24 21:43:00,
2013-05-24 15:46:00,70.8,31.1,22.57,South,171,4.0,21.0,23,0.00,,,0.00,Wunderground v.1.15,2013-05-24 21:46:00,
2013-05-24 15:49:00,70.5,29.8,22.57,SSE,150,4.0,21.0,22,0.00,,,0.00,Wunderground v.1.15,2013-05-24 21:49:00,
2013-05-24 15:50:00,70.3,29.6,22.57,ESE,119,4.0,21.0,22,0.00,,,0.00,Wunderground v.1.15,2013-05-24 21:50:00,
2013-05-24 15:54:00,69.8,30.3,22.57,East,85,4.0,8.0,23,0.00,,,0.00,Wunderground v.1.15,2013-05-24 21:54:00,
2013-05-24 15:56:00,69.6,30.1,22.57,SSE,158,4.0,21.0,23,0.00,,,0.00,Wunderground v.1.15,2013-05-24 21:56:00,
2013-05-24 15:58:00,69.5,31.1,22.57,South,179,4.0,21.0,24,0.00,,,0.00,Wunderground v.1.15,2013-05-24 21:58:00,
2013-05-24 16:00:00,69.7,30.2,22.57,SE,141,3.0,21.0,23,0.00,,,0.00,Wunderground v.1.15,2013-05-24 22:00:00,
2013-05-24 16:02:00,69.9,30.4,22.57,South,190,3.0,3.0,23,0.00,,,0.00,Wunderground v.1.15,2013-05-24 22:02:00,
2013-05-24 16:04:00,70.0,31.5,22.57,South,191,3.0,8.0,24,0.00,,,0.00,Wunderground v.1.15,2013-05-24 22:04:00,
2013-05-24 16:09:00,69.8,30.3,22.57,SE,131,3.0,21.0,23,0.00,,,0.00,Wunderground v.1.15,2013-05-24 22:09:00,
2013-05-24 16:12:00,69.6,29.0,22.57,SSW,195,3.0,21.0,22,0.00,,,0.00,Wunderground v.1.15,2013-05-24 22:12:00,
2013-05-24 16:14:00,69.5,27.8,22.57,SW,226,3.0,21.0,21,0.00,,,0.00,Wunderground v.1.15,2013-05-24 22:14:00,
2013-05-24 16:18:00,70.1,32.6,22.57,SW,235,3.0,21.0,25,0.00,,,0.00,Wunderground v.1.15,2013-05-24 22:18:00,
2013-05-24 16:20:00,70.3,30.7,22.57,SW,231,3.0,21.0,23,0.00,,,0.00,Wunderground v.1.15,2013-05-24 22:20:00,
2013-05-24 16:26:00,69.9,30.4,22.57,SSE,150,4.0,21.0,23,0.00,,,0.00,Wunderground v.1.15,2013-05-24 22:26:00,
2013-05-24 16:29:00,69.7,31.3,22.57,SSE,148,4.0,21.0,24,0.00,,,0.00,Wunderground v.1.15,2013-05-24 22:29:00,
2013-05-24 16:31:00,69.7,32.3,22.57,South,172,3.0,21.0,25,0.00,,,0.00,Wunderground v.1.15,2013-05-24 22:31:00,
2013-05-24 16:32:00,69.7,31.3,22.57,South,191,3.0,21.0,24,0.00,,,0.00,Wunderground v.1.15,2013-05-24 22:32:00,
2013-05-24 16:34:00,69.8,31.4,22.57,WSW,245,3.0,21.0,24,0.00,,,0.00,Wunderground v.1.15,2013-05-24 22:34:00,
2013-05-24 16:36:00,69.9,30.4,22.57,ESE,115,3.0,21.0,23,0.00,,,0.00,Wunderground v.1.15,2013-05-24 22:36:00,
2013-05-24 16:38:00,70.2,31.7,22.57,South,186,4.0,21.0,24,0.00,,,0.00,Wunderground v.1.15,2013-05-24 22:38:00,
2013-05-24 16:40:00,70.5,31.9,22.57,SSW,212,4.0,21.0,24,0.00,,,0.00,Wunderground v.1.15,2013-05-24 22:40:00,
2013-05-24 16:44:00,70.6,33.0,22.57,South,172,3.0,21.0,25,0.00,,,0.00,Wunderground v.1.15,2013-05-24 22:44:00,
2013-05-24 16:50:00,70.8,32.2,22.57,SW,226,3.0,21.0,24,0.00,,,0.00,Wunderground v.1.15,2013-05-24 22:50:00,
2013-05-24 16:55:00,70.4,33.9,22.57,SSW,203,3.0,21.0,26,0.00,,,0.00,Wunderground v.1.15,2013-05-24 22:55:00,
2013-05-24 16:57:00,70.6,33.0,22.57,SW,235,2.0,21.0,25,0.00,,,0.00,Wunderground v.1.15,2013-05-24 22:57:00,
2013-05-24 16:58:00,70.7,31.1,22.57,WSW,243,3.0,21.0,23,0.00,,,0.00,Wunderground v.1.15,2013-05-24 22:58:00,
2013-05-24 17:00:00,70.6,32.0,22.57,SSW,205,3.0,21.0,24,0.00,,,0.00,Wunderground v.1.15,2013-05-24 23:00:00,
2013-05-24 17:06:00,70.9,31.2,22.57,WNW,288,3.0,21.0,23,0.00,,,0.00,Wunderground v.1.15,2013-05-24 23:06:00,
2013-05-24 17:08:00,71.0,30.2,22.57,NNW,347,2.0,21.0,22,0.00,,,0.00,Wunderground v.1.15,2013-05-24 23:08:00,
2013-05-24 17:10:00,71.2,34.5,22.57,SSE,159,2.0,21.0,26,0.00,,,0.00,Wunderground v.1.15,2013-05-24 23:10:00,
2013-05-24 17:12:00,71.4,32.7,22.57,SE,143,2.0,21.0,24,0.00,,,0.00,Wunderground v.1.15,2013-05-24 23:12:00,
2013-05-24 17:17:00,70.9,31.2,22.57,East,81,2.0,21.0,23,0.00,,,0.00,Wunderground v.1.15,2013-05-24 23:17:00,
2013-05-24 17:19:00,70.5,29.8,22.57,ESE,103,3.0,21.0,22,0.00,,,0.00,Wunderground v.1.15,2013-05-24 23:19:00,
2013-05-24 17:23:00,70.5,31.9,22.57,SSW,207,3.0,3.0,24,0.00,,,0.00,Wunderground v.1.15,2013-05-24 23:23:00,
2013-05-24 17:24:00,70.7,31.1,22.57,East,91,3.0,21.0,23,0.00,,,0.00,Wunderground v.1.15,2013-05-24 23:24:00,
2013-05-24 17:28:00,70.8,30.0,22.57,SE,143,3.0,21.0,22,0.00,,,0.00,Wunderground v.1.15,2013-05-24 23:28:00,
2013-05-24 17:30:00,71.2,31.5,22.57,SSE,160,3.0,21.0,23,0.00,,,0.00,Wunderground v.1.15,2013-05-24 23:30:00,
2013-05-24 17:34:00,71.6,27.1,22.57,NW,323,2.0,21.0,19,0.00,,,0.00,Wunderground v.1.15,2013-05-24 23:34:00,
2013-05-24 17:36:00,71.3,28.1,22.57,North,11,2.0,21.0,20,0.00,,,0.00,Wunderground v.1.15,2013-05-24 23:36:00,
2013-05-24 17:38:00,70.9,32.3,22.57,NE,49,2.0,21.0,24,0.00,,,0.00,Wunderground v.1.15,2013-05-24 23:38:00,
2013-05-24 17:40:00,70.3,31.8,22.57,North,360,3.0,21.0,24,0.00,,,0.00,Wunderground v.1.15,2013-05-24 23:40:00,
2013-05-24 17:43:00,69.8,29.2,22.57,ENE,70,3.0,21.0,22,0.00,,,0.00,Wunderground v.1.15,2013-05-24 23:43:00,
2013-05-24 17:45:00,69.3,30.9,22.57,ESE,120,3.0,21.0,24,0.00,,,0.00,Wunderground v.1.15,2013-05-24 23:45:00,
2013-05-24 17:46:00,69.1,33.7,22.57,East,82,3.0,21.0,27,0.00,,,0.00,Wunderground v.1.15,2013-05-24 23:46:00,
2013-05-24 17:48:00,68.9,33.5,22.57,NE,50,3.0,21.0,27,0.00,,,0.00,Wunderground v.1.15,2013-05-24 23:48:00,
2013-05-24 17:52:00,68.8,32.5,22.57,North,359,2.0,21.0,26,0.00,,,0.00,Wunderground v.1.15,2013-05-24 23:52:00,
2013-05-24 17:54:00,68.8,30.5,22.57,ESE,108,1.0,21.0,24,0.00,,,0.00,Wunderground v.1.15,2013-05-24 23:54:00,
2013-05-24 17:57:00,68.8,30.5,22.57,North,360,2.0,21.0,24,0.00,,,0.00,Wunderground v.1.15,2013-05-24 23:57:00,
2013-05-24 18:00:00,69.0,28.5,22.57,NNW,329,1.0,21.0,22,0.00,,,0.00,Wunderground v.1.15,2013-05-25 00:00:00,
2013-05-24 18:02:00,68.9,29.5,22.57,North,1,1.0,21.0,23,0.00,,,0.00,Wunderground v.1.15,2013-05-25 00:02:00,
2013-05-24 18:04:00,68.9,30.6,22.57,North,11,2.0,21.0,24,0.00,,,0.00,Wunderground v.1.15,2013-05-25 00:04:00,
2013-05-24 18:06:00,68.9,30.6,22.57,NNW,347,2.0,21.0,24,0.00,,,0.00,Wunderground v.1.15,2013-05-25 00:06:00,
2013-05-24 18:08:00,68.8,31.5,22.57,NNW,344,3.0,21.0,25,0.00,,,0.00,Wunderground v.1.15,2013-05-25 00:08:00,
2013-05-24 18:12:00,68.8,33.4,22.57,North,4,3.0,3.0,27,0.00,,,0.00,Wunderground v.1.15,2013-05-25 00:12:00,
2013-05-24 18:14:00,68.8,33.4,22.57,NNE,13,3.0,5.0,27,0.00,,,0.00,Wunderground v.1.15,2013-05-25 00:14:00,
2013-05-24 18:17:00,68.6,33.3,22.57,North,356,3.0,21.0,27,0.00,,,0.00,Wunderground v.1.15,2013-05-25 00:17:00,
2013-05-24 18:21:00,68.4,34.0,22.57,NW,319,3.0,21.0,28,0.00,,,0.00,Wunderground v.1.15,2013-05-25 00:21:00,
2013-05-24 18:24:00,68.2,33.8,22.57,NE,56,3.0,21.0,28,0.00,,,0.00,Wunderground v.1.15,2013-05-25 00:24:00,
2013-05-24 18:26:00,68.2,32.9,22.57,ENE,60,3.0,21.0,27,0.00,,,0.00,Wunderground v.1.15,2013-05-25 00:26:00,
2013-05-24 18:28:00,68.1,33.7,22.58,NW,305,3.0,21.0,28,0.00,,,0.00,Wunderground v.1.15,2013-05-25 00:28:00,
2013-05-24 18:30:00,68.2,33.8,22.58,North,6,2.0,21.0,28,0.00,,,0.00,Wunderground v.1.15,2013-05-25 00:30:00,
2013-05-24 18:32:00,68.3,33.9,22.58,NNW,330,2.0,2.0,28,0.00,,,0.00,Wunderground v.1.15,2013-05-25 00:32:00,
2013-05-24 18:36:00,68.2,33.8,22.58,West,261,1.0,21.0,28,0.00,,,0.00,Wunderground v.1.15,2013-05-25 00:36:00,
2013-05-24 18:38:00,68.1,32.8,22.58,SW,233,1.0,21.0,27,0.00,,,0.00,Wunderground v.1.15,2013-05-25 00:38:00,
2013-05-24 18:40:00,67.9,32.7,22.57,WSW,256,2.0,21.0,27,0.00,,,0.00,Wunderground v.1.15,2013-05-25 00:40:00,
2013-05-24 18:43:00,67.7,33.4,22.58,WSW,249,2.0,21.0,28,0.00,,,0.00,Wunderground v.1.15,2013-05-25 00:43:00,
2013-05-24 18:45:00,67.6,33.3,22.57,NNE,22,2.0,21.0,28,0.00,,,0.00,Wunderground v.1.15,2013-05-25 00:45:00,
2013-05-24 18:46:00,67.5,34.1,22.57,WNW,286,2.0,21.0,29,0.00,,,0.00,Wunderground v.1.15,2013-05-25 00:46:00,
2013-05-24 18:48:00,67.4,34.0,22.58,NE,34,1.0,21.0,29,0.00,,,0.00,Wunderground v.1.15,2013-05-25 00:48:00,
2013-05-24 18:52:00,67.2,35.5,22.58,SE,139,1.0,21.0,31,0.00,,,0.00,Wunderground v.1.15,2013-05-25 00:52:00,
2013-05-24 18:54:00,67.0,34.5,22.58,SSE,165,1.0,21.0,30,0.00,,,0.00,Wunderground v.1.15,2013-05-25 00:54:00,
2013-05-24 18:56:00,66.8,34.3,22.58,SE,134,2.0,21.0,30,0.00,,,0.00,Wunderground v.1.15,2013-05-25 00:56:00,
2013-05-24 18:58:00,66.5,34.1,22.58,SE,138,2.0,21.0,30,0.00,,,0.00,Wunderground v.1.15,2013-05-25 00:58:00,
2013-05-24 19:00:00,66.3,34.7,22.58,NE,34,3.0,21.0,31,0.00,,,0.00,Wunderground v.1.15,2013-05-25 01:00:00,
2013-05-24 19:03:00,66.1,34.6,22.58,East,88,3.0,21.0,31,0.00,,,0.00,Wunderground v.1.15,2013-05-25 01:03:00,
2013-05-24 19:05:00,66.0,34.5,22.58,NE,49,3.0,21.0,31,0.00,,,0.00,Wunderground v.1.15,2013-05-25 01:05:00,
2013-05-24 19:07:00,65.8,35.1,22.58,NNE,12,2.0,21.0,32,0.00,,,0.00,Wunderground v.1.15,2013-05-25 01:07:00,
2013-05-24 19:10:00,65.7,35.0,22.58,ESE,117,2.0,21.0,32,0.00,,,0.00,Wunderground v.1.15,2013-05-25 01:10:00,
2013-05-24 19:12:00,65.6,35.7,22.58,WSW,248,1.0,21.0,33,0.00,,,0.00,Wunderground v.1.15,2013-05-25 01:12:00,
2013-05-24 19:16:00,65.3,36.2,22.59,SW,215,1.0,21.0,34,0.00,,,0.00,Wunderground v.1.15,2013-05-25 01:16:00,
2013-05-24 19:20:00,65.0,35.2,22.59,SSW,212,1.0,21.0,33,0.00,,,0.00,Wunderground v.1.15,2013-05-25 01:20:00,
2013-05-24 19:24:00,64.8,35.0,22.59,ESE,103,1.0,21.0,33,0.00,,,0.00,Wunderground v.1.15,2013-05-25 01:24:00,
2013-05-24 19:26:00,64.8,34.2,22.59,SSW,203,0.0,21.0,32,0.00,,,0.00,Wunderground v.1.15,2013-05-25 01:26:00,
2013-05-24 19:29:00,64.7,34.9,22.59,ESE,105,0.0,21.0,33,0.00,,,0.00,Wunderground v.1.15,2013-05-25 01:29:00,
2013-05-24 19:32:00,64.3,36.0,22.59,ESE,105,0.0,21.0,35,0.00,,,0.00,Wunderground v.1.15,2013-05-25 01:32:00,
2013-05-24 19:34:00,64.1,35.9,22.59,ESE,104,0.0,21.0,35,0.00,,,0.00,Wunderground v.1.15,2013-05-25 01:34:00,
2013-05-24 19:36:00,64.0,36.5,22.59,ESE,105,0.0,21.0,36,0.00,,,0.00,Wunderground v.1.15,2013-05-25 01:36:00,
2013-05-24 19:38:00,63.7,36.2,22.59,ESE,104,0.0,21.0,36,0.00,,,0.00,Wunderground v.1.15,2013-05-25 01:38:00,
2013-05-24 19:42:00,63.2,35.8,22.59,ESE,104,0.0,21.0,36,0.00,,,0.00,Wunderground v.1.15,2013-05-25 01:42:00,
2013-05-24 19:44:00,62.9,36.2,22.59,ESE,105,0.0,21.0,37,0.00,,,0.00,Wunderground v.1.15,2013-05-25 01:44:00,
2013-05-24 19:46:00,62.6,36.6,22.59,ESE,105,0.0,21.0,38,0.00,,,0.00,Wunderground v.1.15,2013-05-25 01:46:00,
2013-05-24 19:51:00,62.2,36.3,22.59,ESE,105,0.0,21.0,38,0.00,,,0.00,Wunderground v.1.15,2013-05-25 01:51:00,
2013-05-24 19:53:00,62.0,36.7,22.59,ESE,105,0.0,21.0,39,0.00,,,0.00,Wunderground v.1.15,2013-05-25 01:53:00,
2013-05-24 19:55:00,61.7,36.5,22.59,ESE,104,0.0,21.0,39,0.00,,,0.00,Wunderground v.1.15,2013-05-25 01:55:00,
2013-05-24 20:00:00,61.1,36.6,22.59,WSW,246,0.0,21.0,40,0.00,,,0.00,Wunderground v.1.15,2013-05-25 02:00:00,
2013-05-24 20:02:00,60.8,36.9,22.59,WSW,252,0.0,21.0,41,0.00,,,0.00,Wunderground v.1.15,2013-05-25 02:02:00,
2013-05-24 20:04:00,60.5,37.9,22.59,WSW,252,0.0,21.0,43,0.00,,,0.00,Wunderground v.1.15,2013-05-25 02:04:00,
2013-05-24 20:06:00,60.1,37.5,22.59,West,267,1.0,21.0,43,0.00,,,0.00,Wunderground v.1.15,2013-05-25 02:06:00,
2013-05-24 20:08:00,59.7,37.2,22.59,West,267,1.0,21.0,43,0.00,,,0.00,Wunderground v.1.15,2013-05-25 02:08:00,
2013-05-24 20:12:00,59.2,36.7,22.59,West,267,1.0,1.0,43,0.00,,,0.00,Wunderground v.1.15,2013-05-25 02:12:00,
2013-05-24 20:17:00,58.9,38.1,22.59,West,267,0.0,21.0,46,0.00,,,0.00,Wunderground v.1.15,2013-05-25 02:17:00,
2013-05-24 20:19:00,58.6,37.9,22.59,West,267,0.0,21.0,46,0.00,,,0.00,Wunderground v.1.15,2013-05-25 02:19:00,
2013-05-24 20:20:00,58.3,37.6,22.60,West,266,0.0,21.0,46,0.00,,,0.00,Wunderground v.1.15,2013-05-25 02:20:00,
2013-05-24 20:22:00,57.9,37.8,22.59,West,268,0.0,21.0,47,0.00,,,0.00,Wunderground v.1.15,2013-05-25 02:22:00,
2013-05-24 20:26:00,57.3,36.7,22.60,West,270,0.0,21.0,46,0.00,,,0.00,Wunderground v.1.15,2013-05-25 02:26:00,
2013-05-24 20:30:00,57.0,35.9,22.60,West,270,0.0,21.0,45,0.00,,,0.00,Wunderground v.1.15,2013-05-25 02:30:00,
2013-05-24 20:34:00,56.7,36.1,22.60,West,270,0.0,21.0,46,0.00,,,0.00,Wunderground v.1.15,2013-05-25 02:34:00,
2013-05-24 20:37:00,56.6,35.5,22.60,West,270,0.0,21.0,45,0.00,,,0.00,Wunderground v.1.15,2013-05-25 02:37:00,
2013-05-24 20:39:00,56.4,35.3,22.60,West,270,0.0,21.0,45,0.00,,,0.00,Wunderground v.1.15,2013-05-25 02:39:00,
2013-05-24 20:43:00,56.1,35.6,22.60,West,271,0.0,21.0,46,0.00,,,0.00,Wunderground v.1.15,2013-05-25 02:43:00,
2013-05-24 20:44:00,55.9,36.5,22.60,West,271,0.0,21.0,48,0.00,,,0.00,Wunderground v.1.15,2013-05-25 02:44:00,
2013-05-24 20:46:00,55.7,35.8,22.60,West,271,0.0,21.0,47,0.00,,,0.00,Wunderground v.1.15,2013-05-25 02:46:00,
2013-05-24 20:48:00,55.4,36.0,22.60,West,270,0.0,21.0,48,0.00,,,0.00,Wunderground v.1.15,2013-05-25 02:48:00,
2013-05-24 20:52:00,55.1,35.7,22.60,West,271,0.0,21.0,48,0.00,,,0.00,Wunderground v.1.15,2013-05-25 02:52:00,
2013-05-24 20:58:00,54.4,36.6,22.61,West,270,0.0,21.0,51,0.00,,,0.00,Wunderground v.1.15,2013-05-25 02:58:00,
2013-05-24 21:00:00,54.2,36.9,22.61,West,271,0.0,21.0,52,0.00,,,0.00,Wunderground v.1.15,2013-05-25 03:00:00,
2013-05-24 21:05:00,53.9,36.2,22.61,NW,319,0.0,21.0,51,0.00,,,0.00,Wunderground v.1.15,2013-05-25 03:05:00,
2013-05-24 21:06:00,54.0,36.3,22.61,NW,319,0.0,21.0,51,0.00,,,0.00,Wunderground v.1.15,2013-05-25 03:06:00,
2013-05-24 21:08:00,53.9,37.6,22.61,NW,319,0.0,21.0,54,0.00,,,0.00,Wunderground v.1.15,2013-05-25 03:08:00,
2013-05-24 21:12:00,53.5,36.3,22.61,NW,319,0.0,21.0,52,0.00,,,0.00,Wunderground v.1.15,2013-05-25 03:12:00,
2013-05-24 21:14:00,53.3,37.1,22.61,NW,319,0.0,21.0,54,0.00,,,0.00,Wunderground v.1.15,2013-05-25 03:14:00,
2013-05-24 21:18:00,53.0,36.8,22.61,NW,321,0.0,21.0,54,0.00,,,0.00,Wunderground v.1.15,2013-05-25 03:18:00,
2013-05-24 21:20:00,53.0,36.3,22.61,NW,321,0.0,21.0,53,0.00,,,0.00,Wunderground v.1.15,2013-05-25 03:20:00,
2013-05-24 21:25:00,52.9,36.7,22.61,NW,321,0.0,21.0,54,0.00,,,0.00,Wunderground v.1.15,2013-05-25 03:25:00,
2013-05-24 21:27:00,52.8,36.6,22.61,NW,320,0.0,21.0,54,0.00,,,0.00,Wunderground v.1.15,2013-05-25 03:27:00,
2013-05-24 21:29:00,52.7,36.5,22.61,NW,321,0.0,21.0,54,0.00,,,0.00,Wunderground v.1.15,2013-05-25 03:29:00,
2013-05-24 21:32:00,52.4,36.2,22.62,NW,320,0.0,21.0,54,0.00,,,0.00,Wunderground v.1.15,2013-05-25 03:32:00,
2013-05-24 21:34:00,52.2,36.5,22.62,NW,320,0.0,21.0,55,0.00,,,0.00,Wunderground v.1.15,2013-05-25 03:34:00,
2013-05-24 21:36:00,52.1,35.9,22.62,NW,320,0.0,21.0,54,0.00,,,0.00,Wunderground v.1.15,2013-05-25 03:36:00,
2013-05-24 21:38:00,52.0,35.9,22.62,NW,321,0.0,21.0,54,0.00,,,0.00,Wunderground v.1.15,2013-05-25 03:38:00,
2013-05-24 21:42:00,51.7,36.0,22.62,East,101,0.0,21.0,55,0.00,,,0.00,Wunderground v.1.15,2013-05-25 03:42:00,
2013-05-24 21:44:00,51.6,36.4,22.62,WSW,252,0.0,21.0,56,0.00,,,0.00,Wunderground v.1.15,2013-05-25 03:44:00,
2013-05-24 21:46:00,51.4,36.2,22.62,WSW,252,0.0,21.0,56,0.00,,,0.00,Wunderground v.1.15,2013-05-25 03:46:00,
2013-05-24 21:48:00,51.2,36.0,22.62,WSW,252,0.0,21.0,56,0.00,,,0.00,Wunderground v.1.15,2013-05-25 03:48:00,
2013-05-24 21:51:00,51.1,35.5,22.62,WSW,252,0.0,21.0,55,0.00,,,0.00,Wunderground v.1.15,2013-05-25 03:51:00,
2013-05-24 21:55:00,51.2,34.6,22.62,NW,324,0.0,21.0,53,0.00,,,0.00,Wunderground v.1.15,2013-05-25 03:55:00,
2013-05-24 21:57:00,51.2,35.1,22.62,NW,325,0.0,21.0,54,0.00,,,0.00,Wunderground v.1.15,2013-05-25 03:57:00,
2013-05-24 21:58:00,51.2,35.1,22.62,NW,325,0.0,21.0,54,0.00,,,0.00,Wunderground v.1.15,2013-05-25 03:58:00,
2013-05-24 22:00:00,51.1,35.5,22.62,NW,324,0.0,21.0,55,0.00,,,0.00,Wunderground v.1.15,2013-05-25 04:00:00,
2013-05-24 22:02:00,51.0,35.4,22.62,NW,325,0.0,21.0,55,0.00,,,0.00,Wunderground v.1.15,2013-05-25 04:02:00,
2013-05-24 22:04:00,50.8,34.3,22.62,NW,325,0.0,21.0,53,0.00,,,0.00,Wunderground v.1.15,2013-05-25 04:04:00,
2013-05-24 22:08:00,50.8,32.8,22.63,NW,325,0.0,21.0,50,0.00,,,0.00,Wunderground v.1.15,2013-05-25 04:08:00,
2013-05-24 22:10:00,50.9,32.9,22.63,NW,325,0.0,21.0,50,0.00,,,0.00,Wunderground v.1.15,2013-05-25 04:10:00,
2013-05-24 22:12:00,50.9,32.4,22.63,NW,325,0.0,21.0,49,0.00,,,0.00,Wunderground v.1.15,2013-05-25 04:12:00,
2013-05-24 22:15:00,50.9,32.4,22.63,NNW,336,0.0,21.0,49,0.00,,,0.00,Wunderground v.1.15,2013-05-25 04:15:00,
2013-05-24 22:18:00,50.9,32.9,22.63,NNW,339,0.0,21.0,50,0.00,,,0.00,Wunderground v.1.15,2013-05-25 04:18:00,
2013-05-24 22:20:00,51.0,31.5,22.63,North,351,0.0,21.0,47,0.00,,,0.00,Wunderground v.1.15,2013-05-25 04:20:00,
2013-05-24 22:22:00,51.5,33.0,22.63,North,351,0.0,21.0,49,0.00,,,0.00,Wunderground v.1.15,2013-05-25 04:22:00,
2013-05-24 22:26:00,51.9,32.8,22.63,SSE,148,0.0,21.0,48,0.00,,,0.00,Wunderground v.1.15,2013-05-25 04:26:00,
2013-05-24 22:28:00,51.9,32.8,22.63,SSE,148,0.0,21.0,48,0.00,,,0.00,Wunderground v.1.15,2013-05-25 04:28:00,
2013-05-24 22:30:00,51.9,33.3,22.63,SSE,148,0.0,21.0,49,0.00,,,0.00,Wunderground v.1.15,2013-05-25 04:30:00,
2013-05-24 22:32:00,51.8,32.7,22.63,SSE,148,0.0,21.0,48,0.00,,,0.00,Wunderground v.1.15,2013-05-25 04:32:00,
2013-05-24 22:34:00,51.6,33.0,22.63,SSE,148,0.0,21.0,49,0.00,,,0.00,Wunderground v.1.15,2013-05-25 04:34:00,
2013-05-24 22:37:00,51.5,32.4,22.63,ESE,117,0.0,21.0,48,0.00,,,0.00,Wunderground v.1.15,2013-05-25 04:37:00,
2013-05-24 22:41:00,52.0,30.7,22.63,ENE,77,1.0,21.0,44,0.00,,,0.00,Wunderground v.1.15,2013-05-25 04:41:00,
2013-05-24 22:43:00,52.5,32.8,22.63,ENE,76,1.0,1.0,47,0.00,,,0.00,Wunderground v.1.15,2013-05-25 04:43:00,
2013-05-24 22:46:00,52.1,33.5,22.63,ENE,77,1.0,21.0,49,0.00,,,0.00,Wunderground v.1.15,2013-05-25 04:46:00,
2013-05-24 22:52:00,50.9,31.9,22.63,NE,40,1.0,1.0,48,0.00,,,0.00,Wunderground v.1.15,2013-05-25 04:52:00,
2013-05-24 22:54:00,50.7,31.7,22.63,NE,40,1.0,21.0,48,0.00,,,0.00,Wunderground v.1.15,2013-05-25 04:54:00,
2013-05-24 22:58:00,50.5,30.5,22.62,NE,40,1.0,21.0,46,0.00,,,0.00,Wunderground v.1.15,2013-05-25 04:58:00,
2013-05-24 23:00:00,50.4,30.9,22.62,NE,39,1.0,21.0,47,0.00,,,0.00,Wunderground v.1.15,2013-05-25 05:00:00,
2013-05-24 23:05:00,50.2,31.8,22.62,NE,40,1.0,21.0,49,0.00,,,0.00,Wunderground v.1.15,2013-05-25 05:05:00,
2013-05-24 23:06:00,49.9,32.0,22.62,NE,41,1.0,21.0,50,0.00,,,0.00,Wunderground v.1.15,2013-05-25 05:06:00,
2013-05-24 23:09:00,49.7,31.3,22.62,NE,41,1.0,21.0,49,0.00,,,0.00,Wunderground v.1.15,2013-05-25 05:09:00,
2013-05-24 23:12:00,49.3,30.4,22.62,NE,40,1.0,1.0,48,0.00,,,0.00,Wunderground v.1.15,2013-05-25 05:12:00,
2013-05-24 23:14:00,49.1,30.7,22.62,NE,39,1.0,21.0,49,0.00,,,0.00,Wunderground v.1.15,2013-05-25 05:14:00,
2013-05-24 23:18:00,48.9,30.1,22.62,NE,39,0.0,21.0,48,0.00,,,0.00,Wunderground v.1.15,2013-05-25 05:18:00,
2013-05-24 23:20:00,48.9,30.1,22.62,NE,40,0.0,21.0,48,0.00,,,0.00,Wunderground v.1.15,2013-05-25 05:20:00,
2013-05-24 23:22:00,48.7,30.4,22.62,NE,39,0.0,21.0,49,0.00,,,0.00,Wunderground v.1.15,2013-05-25 05:22:00,
2013-05-24 23:24:00,48.6,30.3,22.62,NE,40,0.0,21.0,49,0.00,,,0.00,Wunderground v.1.15,2013-05-25 05:24:00,
2013-05-24 23:29:00,48.3,30.5,22.62,NE,41,0.0,21.0,50,0.00,,,0.00,Wunderground v.1.15,2013-05-25 05:29:00,
2013-05-24 23:31:00,48.3,31.0,22.62,NE,41,0.0,21.0,51,0.00,,,0.00,Wunderground v.1.15,2013-05-25 05:31:00,
2013-05-24 23:36:00,48.1,30.3,22.62,North,358,0.0,21.0,50,0.00,,,0.00,Wunderground v.1.15,2013-05-25 05:36:00,
2013-05-24 23:40:00,48.1,30.8,22.62,North,358,1.0,21.0,51,0.00,,,0.00,Wunderground v.1.15,2013-05-25 05:40:00,
2013-05-24 23:42:00,48.1,31.3,22.62,North,358,1.0,1.0,52,0.00,,,0.00,Wunderground v.1.15,2013-05-25 05:42:00,
2013-05-24 23:44:00,48.1,31.8,22.62,North,358,1.0,21.0,53,0.00,,,0.00,Wunderground v.1.15,2013-05-25 05:44:00,
2013-05-24 23:49:00,48.1,31.8,22.62,North,358,0.0,21.0,53,0.00,,,0.00,Wunderground v.1.15,2013-05-25 05:49:00,
2013-05-24 23:51:00,48.1,32.2,22.62,North,358,0.0,21.0,54,0.00,,,0.00,Wunderground v.1.15,2013-05-25 05:51:00,
2013-05-24 23:55:00,48.1,31.8,22.62,North,358,0.0,21.0,53,0.00,,,0.00,Wunderground v.1.15,2013-05-25 05:55:00,
2013-05-24 23:57:00,48.0,32.6,22.62,North,358,0.0,21.0,55,0.00,,,0.00,Wunderground v.1.15,2013-05-25 05:57:00,